Time,TemperatureF,DewpointF,PressureIn,WindDirection,WindDirectionDegrees,WindSpeedMPH,WindSpeedGustMPH,Humidity,HourlyPrecipIn,Conditions,Clouds,dailyrainin,SoftwareType,DateUTC
2013-01-24 00:03:00,3.0,-9.0,30.09,WNW,292,1.0,-999.0,55,-99.99,,,-99.99,,2013-01-24 05:03:00,
2013-01-24 00:12:00,3.0,-9.0,30.09,WNW,292,1.0,-999.0,55,-99.99,,,-99.99,,2013-01-24 05:12:00,
2013-01-24 00:22:00,3.0,-9.0,30.09,West,268,1.0,-999.0,55,-99.99,,,-99.99,,2013-01-24 05:22:00,
2013-01-24 00:33:00,3.0,-9.0,30.09,West,269,1.0,-999.0,55,-99.99,,,-99.99,,2013-01-24 05:33:00,
2013-01-24 00:43:00,3.0,-9.0,30.09,West,269,1.0,-999.0,55,-99.99,,,-99.99,,2013-01-24 05:43:00,
2013-01-24 00:53:00,2.0,-10.0,30.08,WNW,287,1.0,-999.0,55,-99.99,,,-99.99,,2013-01-24 05:53:00,
2013-01-24 01:03:00,2.0,-10.0,30.08,WSW,246,1.0,-999.0,55,-99.99,,,-99.99,,2013-01-24 06:03:00,
2013-01-24 01:12:00,2.0,-10.0,30.08,WSW,246,1.0,-999.0,55,-99.99,,,-99.99,,2013-01-24 06:12:00,
2013-01-24 01:22:00,2.0,-10.0,30.08,West,268,1.0,-999.0,56,-99.99,,,-99.99,,2013-01-24 06:22:00,
2013-01-24 01:32:00,2.0,-10.0,30.08,West,268,1.0,-999.0,56,-99.99,,,-99.99,,2013-01-24 06:32:00,
2013-01-24 01:42:00,2.0,-10.0,30.08,West,268,1.0,-999.0,56,-99.99,,,-99.99,,2013-01-24 06:42:00,
2013-01-24 01:52:00,2.0,-10.0,30.08,WNW,283,1.0,-999.0,57,-99.99,,,-99.99,,2013-01-24 06:52:00,
2013-01-24 02:03:00,2.0,-10.0,30.09,West,271,0.0,-999.0,57,-99.99,,,-99.99,,2013-01-24 07:03:00,
2013-01-24 02:12:00,2.0,-10.0,30.09,West,271,0.0,-999.0,57,-99.99,,,-99.99,,2013-01-24 07:12:00,
2013-01-24 02:23:00,1.0,-11.0,30.09,WNW,282,1.0,-999.0,57,-99.99,,,-99.99,,2013-01-24 07:23:00,
2013-01-24 02:33:00,1.0,-11.0,30.09,WNW,296,2.0,-999.0,57,-99.99,,,-99.99,,2013-01-24 07:33:00,
2013-01-24 02:43:00,1.0,-11.0,30.09,WNW,296,2.0,-999.0,57,-99.99,,,-99.99,,2013-01-24 07:43:00,
2013-01-24 02:53:00,1.0,-11.0,30.09,West,271,2.0,-999.0,57,-99.99,,,-99.99,,2013-01-24 07:53:00,
2013-01-24 03:02:00,1.0,-11.0,30.08,West,280,1.0,-999.0,56,-99.99,,,-99.99,,2013-01-24 08:02:00,
2013-01-24 03:12:00,1.0,-11.0,30.08,West,280,1.0,-999.0,56,-99.99,,,-99.99,,2013-01-24 08:12:00,
2013-01-24 03:23:00,1.0,-11.0,30.08,West,263,1.0,-999.0,56,-99.99,,,-99.99,,2013-01-24 08:23:00,
2013-01-24 03:33:00,0.0,-12.0,30.08,WNW,284,1.0,-999.0,57,-99.99,,,-99.99,,2013-01-24 08:33:00,
2013-01-24 03:43:00,0.0,-12.0,30.08,WNW,284,1.0,-999.0,57,-99.99,,,-99.99,,2013-01-24 08:43:00,
2013-01-24 03:53:00,0.0,-12.0,30.07,West,265,2.0,-999.0,57,-99.99,,,-99.99,,2013-01-24 08:53:00,
2013-01-24 04:03:00,0.0,-12.0,30.07,WNW,284,2.0,-999.0,56,-99.99,,,-99.99,,2013-01-24 09:03:00,
2013-01-24 04:13:00,0.0,-12.0,30.07,WNW,284,2.0,-999.0,56,-99.99,,,-99.99,,2013-01-24 09:13:00,
2013-01-24 04:23:00,0.0,-12.0,30.07,West,260,1.0,-999.0,56,-99.99,,,-99.99,,2013-01-24 09:23:00,
2013-01-24 04:33:00,0.0,-11.0,30.07,West,272,0.0,-999.0,58,-99.99,,,-99.99,,2013-01-24 09:33:00,
2013-01-24 04:43:00,0.0,-11.0,30.07,West,272,0.0,-999.0,58,-99.99,,,-99.99,,2013-01-24 09:43:00,
2013-01-24 04:53:00,0.0,-12.0,30.07,West,273,0.0,-999.0,57,-99.99,,,-99.99,,2013-01-24 09:53:00,
2013-01-24 05:03:00,0.0,-12.0,30.07,West,273,0.0,-999.0,57,-99.99,,,-99.99,,2013-01-24 10:03:00,
2013-01-24 05:12:00,0.0,-12.0,30.07,West,273,0.0,-999.0,57,-99.99,,,-99.99,,2013-01-24 10:12:00,
2013-01-24 05:23:00,0.0,-11.0,30.07,West,273,0.0,-999.0,58,-99.99,,,-99.99,,2013-01-24 10:23:00,
2013-01-24 05:33:00,0.0,-11.0,30.07,West,273,0.0,-999.0,58,-99.99,,,-99.99,,2013-01-24 10:33:00,
2013-01-24 05:43:00,0.0,-11.0,30.07,West,273,0.0,-999.0,58,-99.99,,,-99.99,,2013-01-24 10:43:00,
2013-01-24 05:53:00,0.0,-11.0,30.08,WNW,296,0.0,-999.0,59,-99.99,,,-99.99,,2013-01-24 10:53:00,
2013-01-24 06:03:00,-1.0,-12.0,30.07,West,267,1.0,-999.0,59,-99.99,,,-99.99,,2013-01-24 11:03:00,
2013-01-24 06:12:00,-1.0,-12.0,30.07,West,267,1.0,-999.0,59,-99.99,,,-99.99,,2013-01-24 11:12:00,
2013-01-24 06:23:00,-1.0,-12.0,30.08,West,267,1.0,-999.0,58,-99.99,,,-99.99,,2013-01-24 11:23:00,
2013-01-24 06:33:00,-1.0,-12.0,30.08,West,269,0.0,-999.0,58,-99.99,,,-99.99,,2013-01-24 11:33:00,
2013-01-24 06:43:00,-1.0,-12.0,30.08,West,269,0.0,-999.0,58,-99.99,,,-99.99,,2013-01-24 11:43:00,
2013-01-24 06:53:00,-1.0,-12.0,30.08,West,265,1.0,-999.0,59,-99.99,,,-99.99,,2013-01-24 11:53:00,
2013-01-24 07:03:00,-1.0,-11.0,30.09,West,267,0.0,-999.0,60,-99.99,,,-99.99,,2013-01-24 12:03:00,
2013-01-24 07:12:00,-1.0,-11.0,30.09,West,267,0.0,-999.0,60,-99.99,,,-99.99,,2013-01-24 12:12:00,
2013-01-24 07:23:00,-1.0,-11.0,30.09,West,267,0.0,-999.0,61,-99.99,,,-99.99,,2013-01-24 12:23:00,
2013-01-24 07:33:00,-1.0,-11.0,30.09,West,266,0.0,-999.0,62,-99.99,,,-99.99,,2013-01-24 12:33:00,
2013-01-24 07:43:00,-1.0,-11.0,30.09,West,266,0.0,-999.0,62,-99.99,,,-99.99,,2013-01-24 12:43:00,
2013-01-24 07:53:00,-1.0,-11.0,30.09,West,266,0.0,-999.0,62,-99.99,,,-99.99,,2013-01-24 12:53:00,
2013-01-24 08:03:00,-1.0,-11.0,30.09,West,265,0.0,-999.0,63,-99.99,,,-99.99,,2013-01-24 13:03:00,
2013-01-24 08:13:00,-1.0,-11.0,30.09,West,265,0.0,-999.0,63,-99.99,,,-99.99,,2013-01-24 13:13:00,
2013-01-24 08:23:00,0.0,-10.0,30.10,West,267,0.0,-999.0,63,-99.99,,,-99.99,,2013-01-24 13:23:00,
2013-01-24 08:33:00,1.0,-10.0,30.10,West,275,2.0,-999.0,59,-99.99,,,-99.99,,2013-01-24 13:33:00,
2013-01-24 08:43:00,1.0,-10.0,30.10,West,275,2.0,-999.0,59,-99.99,,,-99.99,,2013-01-24 13:43:00,
2013-01-24 08:53:00,2.0,-10.0,30.10,West,279,2.0,-999.0,56,-99.99,,,-99.99,,2013-01-24 13:53:00,
2013-01-24 09:03:00,3.0,-9.0,30.10,West,269,1.0,-999.0,55,-99.99,,,-99.99,,2013-01-24 14:03:00,
2013-01-24 09:12:00,3.0,-9.0,30.10,West,269,1.0,-999.0,55,-99.99,,,-99.99,,2013-01-24 14:12:00,
2013-01-24 09:23:00,4.0,-10.0,30.10,WNW,291,3.0,-999.0,52,-99.99,,,-99.99,,2013-01-24 14:23:00,
2013-01-24 09:33:00,5.0,-10.0,30.09,NW,314,3.0,-999.0,48,-99.99,,,-99.99,,2013-01-24 14:33:00,
2013-01-24 09:43:00,5.0,-10.0,30.09,NW,314,3.0,-999.0,48,-99.99,,,-99.99,,2013-01-24 14:43:00,
2013-01-24 09:54:00,6.0,-9.0,30.09,West,280,3.0,-999.0,48,-99.99,,,-99.99,,2013-01-24 14:54:00,
2013-01-24 10:04:00,7.0,-9.0,30.09,WNW,290,3.0,-999.0,47,-99.99,,,-99.99,,2013-01-24 15:04:00,
2013-01-24 10:13:00,7.0,-9.0,30.09,WNW,290,3.0,-999.0,47,-99.99,,,-99.99,,2013-01-24 15:13:00,
2013-01-24 10:23:00,8.0,-9.0,30.09,WNW,286,5.0,-999.0,44,-99.99,,,-99.99,,2013-01-24 15:23:00,
2013-01-24 10:33:00,8.0,-9.0,30.09,WNW,286,5.0,-999.0,44,-99.99,,,-99.99,,2013-01-24 15:33:00,
2013-01-24 10:43:00,9.0,-9.0,30.09,WSW,257,5.0,-999.0,42,-99.99,,,-99.99,,2013-01-24 15:43:00,
2013-01-24 10:53:00,9.0,-10.0,30.09,West,275,6.0,-999.0,41,-99.99,,,-99.99,,2013-01-24 15:53:00,
2013-01-24 11:03:00,10.0,-9.0,30.08,WNW,286,5.0,-999.0,41,-99.99,,,-99.99,,2013-01-24 16:03:00,
2013-01-24 11:12:00,10.0,-9.0,30.08,WNW,286,5.0,-999.0,41,-99.99,,,-99.99,,2013-01-24 16:12:00,
2013-01-24 11:23:00,11.0,-8.0,30.08,WNW,302,4.0,-999.0,41,-99.99,,,-99.99,,2013-01-24 16:23:00,
2013-01-24 11:33:00,12.0,-8.0,30.07,NW,316,6.0,-999.0,40,-99.99,,,-99.99,,2013-01-24 16:33:00,
2013-01-24 11:43:00,12.0,-8.0,30.07,NW,316,6.0,-999.0,40,-99.99,,,-99.99,,2013-01-24 16:43:00,
2013-01-24 12:03:00,13.0,-8.0,30.06,WNW,292,4.0,-999.0,38,-99.99,,,-99.99,,2013-01-24 17:03:00,
2013-01-24 12:12:00,13.0,-8.0,30.06,WNW,292,4.0,-999.0,38,-99.99,,,-99.99,,2013-01-24 17:12:00,
2013-01-24 12:22:00,13.0,-8.0,30.06,NW,326,8.0,-999.0,37,-99.99,,,-99.99,,2013-01-24 17:22:00,
2013-01-24 12:32:00,13.0,-8.0,30.06,NW,326,8.0,-999.0,37,-99.99,,,-99.99,,2013-01-24 17:32:00,
2013-01-24 12:42:00,13.0,-8.0,30.06,NW,326,8.0,-999.0,37,-99.99,,,-99.99,,2013-01-24 17:42:00,
2013-01-24 12:52:00,14.0,-9.0,30.05,NW,321,9.0,-999.0,35,-99.99,,,-99.99,,2013-01-24 17:52:00,
2013-01-24 13:02:00,15.0,-8.0,30.05,West,279,7.0,-999.0,35,-99.99,,,-99.99,,2013-01-24 18:02:00,
2013-01-24 13:12:00,15.0,-8.0,30.04,NW,313,7.0,-999.0,35,-99.99,,,-99.99,,2013-01-24 18:12:00,
2013-01-24 13:23:00,15.0,-8.0,30.04,NW,313,7.0,-999.0,35,-99.99,,,-99.99,,2013-01-24 18:23:00,
2013-01-24 13:33:00,16.0,-6.0,30.04,WSW,252,6.0,-999.0,36,-99.99,,,-99.99,,2013-01-24 18:33:00,
2013-01-24 13:42:00,16.0,-6.0,30.04,WSW,252,6.0,-999.0,36,-99.99,,,-99.99,,2013-01-24 18:42:00,
2013-01-24 13:53:00,16.0,-7.0,30.04,NW,304,7.0,-999.0,35,-99.99,,,-99.99,,2013-01-24 18:53:00,
2013-01-24 14:02:00,16.0,-7.0,30.03,West,277,7.0,-999.0,34,-99.99,,,-99.99,,2013-01-24 19:02:00,
2013-01-24 14:12:00,16.0,-7.0,30.03,West,277,7.0,-999.0,34,-99.99,,,-99.99,,2013-01-24 19:12:00,
2013-01-24 14:22:00,16.0,-8.0,30.03,WNW,291,9.0,-999.0,33,-99.99,,,-99.99,,2013-01-24 19:22:00,
2013-01-24 14:33:00,17.0,-6.0,30.03,WNW,294,6.0,-999.0,34,-99.99,,,-99.99,,2013-01-24 19:33:00,
2013-01-24 14:42:00,17.0,-8.0,30.03,WNW,300,10.0,-999.0,32,-99.99,,,-99.99,,2013-01-24 19:42:00,
2013-01-24 14:53:00,17.0,-8.0,30.03,WNW,300,10.0,-999.0,32,-99.99,,,-99.99,,2013-01-24 19:53:00,
2013-01-24 15:02:00,17.0,-8.0,30.03,WNW,292,9.0,-999.0,32,-99.99,,,-99.99,,2013-01-24 20:02:00,
2013-01-24 15:12:00,17.0,-8.0,30.03,WNW,292,9.0,-999.0,32,-99.99,,,-99.99,,2013-01-24 20:12:00,
2013-01-24 15:22:00,17.0,-9.0,30.03,WNW,300,14.0,-999.0,30,-99.99,,,-99.99,,2013-01-24 20:22:00,
2013-01-24 15:32:00,16.0,-9.0,30.04,NW,325,8.0,-999.0,31,-99.99,,,-99.99,,2013-01-24 20:32:00,
2013-01-24 15:42:00,16.0,-9.0,30.04,NW,325,8.0,-999.0,31,-99.99,,,-99.99,,2013-01-24 20:42:00,
2013-01-24 15:52:00,17.0,-8.0,30.04,WNW,286,8.0,-999.0,32,-99.99,,,-99.99,,2013-01-24 20:52:00,
2013-01-24 16:02:00,17.0,-8.0,30.05,NW,322,6.0,-999.0,32,-99.99,,,-99.99,,2013-01-24 21:02:00,
2013-01-24 16:12:00,17.0,-8.0,30.05,NW,322,6.0,-999.0,32,-99.99,,,-99.99,,2013-01-24 21:12:00,
2013-01-24 16:22:00,17.0,-8.0,30.05,WSW,246,5.0,-999.0,32,-99.99,,,-99.99,,2013-01-24 21:22:00,
2013-01-24 16:33:00,17.0,-8.0,30.04,WNW,286,7.0,-999.0,32,-99.99,,,-99.99,,2013-01-24 21:33:00,
2013-01-24 16:43:00,17.0,-8.0,30.04,WNW,286,7.0,-999.0,32,-99.99,,,-99.99,,2013-01-24 21:43:00,
2013-01-24 16:53:00,16.0,-9.0,30.06,West,271,9.0,-999.0,32,-99.99,,,-99.99,,2013-01-24 21:53:00,
2013-01-24 17:03:00,16.0,-8.0,30.06,SW,231,6.0,-999.0,33,-99.99,,,-99.99,,2013-01-24 22:03:00,
2013-01-24 17:12:00,16.0,-8.0,30.06,SW,231,6.0,-999.0,33,-99.99,,,-99.99,,2013-01-24 22:12:00,
2013-01-24 17:22:00,15.0,-9.0,30.07,West,268,5.0,-999.0,33,-99.99,,,-99.99,,2013-01-24 22:22:00,
2013-01-24 17:32:00,15.0,-9.0,30.07,WNW,298,6.0,-999.0,33,-99.99,,,-99.99,,2013-01-24 22:32:00,
2013-01-24 17:42:00,15.0,-9.0,30.07,WNW,298,6.0,-999.0,33,-99.99,,,-99.99,,2013-01-24 22:42:00,
2013-01-24 17:53:00,14.0,-10.0,30.07,WNW,282,7.0,-999.0,33,-99.99,,,-99.99,,2013-01-24 22:53:00,
2013-01-24 18:03:00,14.0,-9.0,30.08,WNW,287,4.0,-999.0,35,-99.99,,,-99.99,,2013-01-24 23:03:00,
2013-01-24 18:12:00,14.0,-9.0,30.08,WNW,287,4.0,-999.0,35,-99.99,,,-99.99,,2013-01-24 23:12:00,
2013-01-24 18:22:00,14.0,-9.0,30.08,WNW,284,4.0,-999.0,35,-99.99,,,-99.99,,2013-01-24 23:22:00,
2013-01-24 18:32:00,14.0,-8.0,30.09,West,261,4.0,-999.0,36,-99.99,,,-99.99,,2013-01-24 23:32:00,
2013-01-24 18:42:00,14.0,-8.0,30.09,West,261,4.0,-999.0,36,-99.99,,,-99.99,,2013-01-24 23:42:00,
2013-01-24 18:52:00,13.0,-9.0,30.09,West,270,4.0,-999.0,36,-99.99,,,-99.99,,2013-01-24 23:52:00,
2013-01-24 19:02:00,14.0,-9.0,30.09,WNW,299,7.0,-999.0,34,-99.99,,,-99.99,,2013-01-25 00:02:00,
2013-01-24 19:12:00,14.0,-9.0,30.09,WNW,299,7.0,-999.0,34,-99.99,,,-99.99,,2013-01-25 00:12:00,
2013-01-24 19:22:00,14.0,-9.0,30.11,WSW,242,5.0,-999.0,34,-99.99,,,-99.99,,2013-01-25 00:22:00,
2013-01-24 19:32:00,13.0,-8.0,30.11,NW,306,2.0,-999.0,38,-99.99,,,-99.99,,2013-01-25 00:32:00,
2013-01-24 19:42:00,13.0,-8.0,30.11,NW,306,2.0,-999.0,38,-99.99,,,-99.99,,2013-01-25 00:42:00,
2013-01-24 19:53:00,13.0,-7.0,30.11,West,276,4.0,-999.0,40,-99.99,,,-99.99,,2013-01-25 00:53:00,
2013-01-24 20:02:00,12.0,-8.0,30.12,West,267,3.0,-999.0,39,-99.99,,,-99.99,,2013-01-25 01:02:00,
2013-01-24 20:12:00,12.0,-8.0,30.12,West,267,3.0,-999.0,39,-99.99,,,-99.99,,2013-01-25 01:12:00,
2013-01-24 20:22:00,12.0,-10.0,30.12,WNW,292,5.0,-999.0,36,-99.99,,,-99.99,,2013-01-25 01:22:00,
2013-01-24 20:32:00,12.0,-12.0,30.12,WNW,284,9.0,-999.0,33,-99.99,,,-99.99,,2013-01-25 01:32:00,
2013-01-24 20:42:00,12.0,-12.0,30.12,WNW,284,9.0,-999.0,33,-99.99,,,-99.99,,2013-01-25 01:42:00,
2013-01-24 20:52:00,12.0,-12.0,30.12,WSW,257,11.0,-999.0,33,-99.99,,,-99.99,,2013-01-25 01:52:00,
2013-01-24 21:02:00,12.0,-12.0,30.12,NW,304,8.0,-999.0,33,-99.99,,,-99.99,,2013-01-25 02:02:00,
2013-01-24 21:12:00,12.0,-12.0,30.12,NW,304,8.0,-999.0,33,-99.99,,,-99.99,,2013-01-25 02:12:00,
2013-01-24 21:22:00,12.0,-12.0,30.13,WNW,297,9.0,-999.0,32,-99.99,,,-99.99,,2013-01-25 02:22:00,
2013-01-24 21:32:00,12.0,-12.0,30.14,WNW,282,8.0,-999.0,33,-99.99,,,-99.99,,2013-01-25 02:32:00,
2013-01-24 21:42:00,12.0,-12.0,30.14,WNW,282,8.0,-999.0,33,-99.99,,,-99.99,,2013-01-25 02:42:00,
2013-01-24 21:53:00,11.0,-12.0,30.15,NW,313,7.0,-999.0,33,-99.99,,,-99.99,,2013-01-25 02:53:00,
2013-01-24 22:02:00,11.0,-12.0,30.15,West,276,8.0,-999.0,34,-99.99,,,-99.99,,2013-01-25 03:02:00,
2013-01-24 22:12:00,11.0,-12.0,30.15,West,280,7.0,-999.0,34,-99.99,,,-99.99,,2013-01-25 03:12:00,
2013-01-24 22:22:00,11.0,-12.0,30.15,West,280,7.0,-999.0,34,-99.99,,,-99.99,,2013-01-25 03:22:00,
2013-01-24 22:33:00,10.0,-12.0,30.16,WNW,290,7.0,-999.0,35,-99.99,,,-99.99,,2013-01-25 03:33:00,
2013-01-24 22:42:00,10.0,-12.0,30.16,WNW,290,7.0,-999.0,35,-99.99,,,-99.99,,2013-01-25 03:42:00,
2013-01-24 22:53:00,10.0,-12.0,30.16,West,270,8.0,-999.0,35,-99.99,,,-99.99,,2013-01-25 03:53:00,
2013-01-24 23:02:00,10.0,-12.0,30.16,WNW,287,7.0,-999.0,36,-99.99,,,-99.99,,2013-01-25 04:02:00,
2013-01-24 23:12:00,10.0,-12.0,30.16,WNW,287,7.0,-999.0,36,-99.99,,,-99.99,,2013-01-25 04:12:00,
2013-01-24 23:22:00,9.0,-12.0,30.16,NW,304,7.0,-999.0,36,-99.99,,,-99.99,,2013-01-25 04:22:00,
2013-01-24 23:32:00,9.0,-12.0,30.17,West,273,8.0,-999.0,37,-99.99,,,-99.99,,2013-01-25 04:32:00,
2013-01-24 23:42:00,9.0,-12.0,30.17,West,273,8.0,-999.0,37,-99.99,,,-99.99,,2013-01-25 04:42:00,
2013-01-24 23:52:00,9.0,-11.0,30.18,West,280,6.0,-999.0,38,-99.99,,,-99.99,,2013-01-25 04:52:00,